This is the latest recevied weather packets stored in our database for station/object WP3XM. If no packets are shown the sender has not sent any weather packets the latest 1 day(s).
| Time | Temp. | Humidity | Pressure | Rain* | Wind** | Luminosity | Snow |
|---|---|---|---|---|---|---|---|
| 1778015048 | 28.33° C | 73% | 1017.5 hPa | 0 mm | 3.58 m/s, 164° | 77 W/m² | - |
| 1778014744 | 28.89° C | 73% | 1017.6 hPa | 0 mm | 3.13 m/s, 170° | 97 W/m² | - |
| 1778014443 | 28.89° C | 72% | 1017.5 hPa | 0 mm | 3.13 m/s, 119° | 147 W/m² | - |
| 1778014139 | 28.89° C | 70% | 1017.7 hPa | 0 mm | 4.02 m/s, 118° | 113 W/m² | - |
| 1778013837 | 28.89° C | 71% | 1017.5 hPa | 0 mm | 3.13 m/s, 135° | 140 W/m² | - |
| 1778013534 | 29.44° C | 69% | 1017.6 hPa | 0 mm | 4.02 m/s, 202° | 373 W/m² | - |
| 1778013230 | 29.44° C | 69% | 1017.4 hPa | 0 mm | 3.13 m/s, 112° | 396 W/m² | - |
| 1778012927 | 30° C | 66% | 1017.6 hPa | 0 mm | 3.13 m/s, 167° | 407 W/m² | - |
| 1778012623 | 30° C | 66% | 1017.8 hPa | 0 mm | 3.13 m/s, 109° | 449 W/m² | - |
| 1778012320 | 30° C | 65% | 1017.7 hPa | 0 mm | 1.79 m/s, 120° | 470 W/m² | - |
| 1778012017 | 30° C | 67% | 1017.5 hPa | 0 mm | 3.13 m/s, 141° | 503 W/m² | - |
| 1778011716 | 30° C | 65% | 1017.7 hPa | 0 mm | 1.79 m/s, 114° | 502 W/m² | - |
| 1778011412 | 30.56° C | 63% | 1017.6 hPa | 0 mm | 2.68 m/s, 130° | 529 W/m² | - |
| 1778011108 | 30° C | 65% | 1017.7 hPa | 0 mm | 1.79 m/s, 195° | 566 W/m² | - |
| 1778010805 | 30° C | 65% | 1017.8 hPa | 0 mm | 2.24 m/s, 116° | 593 W/m² | - |
| 1778010502 | 30° C | 64% | 1017.7 hPa | 0 mm | 3.58 m/s, 123° | 279 W/m² | - |
| 1778010199 | 30° C | 63% | 1017.6 hPa | 0 mm | 4.47 m/s, 92° | 217 W/m² | - |
| 1778009894 | 30° C | 65% | 1017.7 hPa | 0 mm | 3.58 m/s, 91° | 643 W/m² | - |
| 1778009593 | 30.56° C | 64% | 1017.7 hPa | 0 mm | 2.68 m/s, 105° | 660 W/m² | - |
| 1778009290 | 30° C | 64% | 1018 hPa | 0 mm | 1.79 m/s, 131° | 672 W/m² | - |
| 1778008989 | 30° C | 66% | 1017.7 hPa | 0 mm | 4.47 m/s, 126° | 745 W/m² | - |
| 1778008686 | 30.56° C | 63% | 1017.7 hPa | 0 mm | 2.24 m/s, 97° | 683 W/m² | - |
| 1778008384 | 30° C | 64% | 1017.8 hPa | 0 mm | 1.79 m/s, 92° | 697 W/m² | - |
| 1778008080 | 30.56° C | 64% | 1017.9 hPa | 0 mm | 2.68 m/s, 128° | 701 W/m² | - |
| 1778007775 | 30° C | 65% | 1017.9 hPa | 0 mm | 4.02 m/s, 115° | 708 W/m² | - |
* Rain latest hour (hover to see other rain measurements)
** Current wind speed in m/s (hover to see current wind gust speed)